EW7736 Weather Reports


Display with metric or nautical units.
time (UTC)temp
F
wind
direction
speed
MPH
gust
MPH
rain 1hr
in
rain 24hr
in
rain mn
in
humidity
%
barometer
mb
20260904052411 67 48 0.0 0.0 0.00 0.93 0.00 1 1015.2
20260904051422 67 46 0.0 0.0 0.00 0.93 0.00 1 1015.1
20260904050436 68 46 0.0 2.0 0.00 0.93 0.00 1 1015.1
20260904045454 68 51 0.0 3.0 0.00 0.93 0.00 1 1015.4
20260904044424 68 42 1.0 3.0 0.00 0.93 0.00 1 1015.8
20260904041204 67 34 0.0 1.0 0.00 0.93 0.00 1 1016.0
20260904040132 67 51 0.0 2.0 0.00 0.93 0.00 1 1016.0
20260904034022 67 53 0.0 0.0 0.00 0.93 0.94 1 1016.2
20260904033042 67 51 0.0 1.0 0.00 0.93 0.94 1 1016.3
20260904032019 67 51 0.0 3.0 0.00 0.93 0.94 1 1016.6
20260904030952 67 52 0.0 2.0 0.00 0.93 0.94 1 1016.5
20260904025955 67 46 0.0 5.0 0.00 0.93 0.94 1 1016.7
20260904025017 67 22 0.0 1.0 0.00 0.93 0.94 1 1016.9
20260904022940 68 50 0.0 0.0 0.00 0.93 0.94 1 1016.5
20260904021929 68 50 0.0 0.0 0.00 0.93 0.94 1 1016.8
20260904020921 68 49 0.0 0.0 0.00 0.93 0.94 1 1017.0
20260904015854 68 49 0.0 0.0 0.00 0.93 0.94 1 1017.4
20260904013714 68 49 0.0 0.0 0.00 0.92 0.93 4 1017.5
20260904012734 68 119 0.0 0.0 0.04 0.92 0.93 4 1017.4
20260904011705 68 130 0.0 0.0 0.17 0.92 0.93 18 1017.4
20260904010646 69 145 0.0 2.0 0.40 0.89 0.90 19 1018.2
20260904005635 69 138 4.0 14.0 3.60 0.49 0.52 35 1019.2
20260904003500 70 338 0.0 0.0 0.05 0.21 0.21 47 1016.2
20260904002524 70 161 0.0 0.0 0.18 0.21 0.21 58 1015.9
20260904001527 71 161 0.0 2.0 0.00 0.02 0.02 61 1016.1
20260903235413 72 193 0.0 4.0 0.00 0.02 0.02 68 1015.7
20260903234422 72 191 0.0 0.0 0.00 0.02 0.02 68 1015.9
20260903232334 73 166 0.0 0.0 0.00 0.02 0.02 72 1015.6
20260903231346 73 129 0.0 0.0 0.00 0.02 0.02 74 1015.7
20260903230332 75 186 1.0 18.0 0.00 0.02 0.02 73 1016.0
20260903225344 77 140 2.0 18.0 0.00 0.02 0.02 74 1016.6
20260903224338 80 141 0.0 3.0 0.00 0.02 0.02 72 1016.3
20260903223337 82 94 0.0 3.0 0.00 0.01 0.01 75 1015.5
20260903222334 84 101 1.0 8.0 0.00 0.01 0.01 74 1015.1
20260903220207 85 53 2.0 4.0 0.00 0.01 0.01 72 1013.7
20260903215224 86 47 1.0 3.0 0.00 0.01 0.01 71 1014.1
20260903211928 87 53 1.0 8.0 0.00 0.01 0.01 70 1013.8
20260903210855 87 43 0.0 3.0 0.00 0.01 0.01 70 1013.4
20260903205919 88 92 1.0 5.0 0.00 0.01 0.01 68 1013.5
20260903204903 88 96 2.0 9.0 0.00 0.01 0.01 68 1013.9
20260903203840 88 49 2.0 9.0 0.00 0.01 0.01 66 1014.2
20260903202833 88 42 1.0 8.0 0.00 0.01 0.01 68 1014.2
20260903200734 88 49 1.0 7.0 0.00 0.01 0.01 67 1014.5
20260903195751 88 96 1.0 5.0 0.00 0.01 0.01 67 1014.5
20260903194728 88 103 1.0 6.0 0.00 0.01 0.01 66 1014.6
20260903193712 88 102 2.0 6.0 0.00 0.01 0.01 67 1014.9
20260903192704 87 50 2.0 7.0 0.00 0.01 0.01 66 1015.0
20260903191708 87 46 2.0 8.0 0.00 0.01 0.01 67 1015.2
20260903185514 86 57 2.0 8.0 0.00 0.01 0.01 68 1015.7
20260903184507 86 41 2.0 7.0 0.00 0.01 0.01 68 1016.0
20260903183515 86 20 2.0 7.0 0.00 0.01 0.01 66 1015.9
20260903182527 85 49 2.0 6.0 0.00 0.01 0.01 68 1016.1
20260903180339 84 47 1.0 7.0 0.00 0.01 0.01 69 1016.6
20260903175326 83 47 2.0 9.0 0.00 0.01 0.01 68 1016.6
20260903174332 83 60 2.0 9.0 0.00 0.01 0.01 70 1016.8
20260903172208 82 35 1.0 7.0 0.00 0.01 0.01 70 1017.0
20260903171225 81 52 3.0 7.0 0.00 0.01 0.01 70 1017.0
20260903170225 81 39 0.0 3.0 0.00 0.01 0.01 73 1017.0
20260903165239 81 51 1.0 4.0 0.00 0.01 0.01 72 1017.1
20260903164237 81 72 0.0 5.0 0.00 0.01 0.01 72 1017.2
20260903163204 80 338 0.0 5.0 0.00 0.01 0.01 73 1017.5
20260903162141 79 53 0.0 4.0 0.00 0.01 0.01 73 1017.6
20260903161122 79 56 0.0 4.0 0.00 0.01 0.01 74 1017.9
20260903160137 77 24 0.0 4.0 0.00 0.01 0.01 75 1018.0
20260903154038 76 295 0.0 0.0 0.00 0.01 0.01 74 1018.4
20260903153031 76 300 0.0 2.0 0.00 0.01 0.01 74 1018.6
20260903152045 76 348 0.0 3.0 0.00 0.01 0.01 74 1018.3
20260903151018 76 268 0.0 3.0 0.00 0.01 0.01 73 1018.0
20260903150002 75 82 0.0 3.0 0.00 0.01 0.01 74 1018.2
20260903143749 74 188 0.0 0.0 0.00 0.01 0.01 58 1018.5
20260903141634 73 192 0.0 0.0 0.00 0.01 0.01 59 1018.9
20260903140602 73 155 0.0 0.0 0.00 0.01 0.01 55 1018.7
20260903134449 73 155 0.0 0.0 0.00 0.01 0.01 42 1018.0
20260903133500 73 160 0.0 0.0 0.00 0.01 0.01 46 1018.3
20260903132453 72 160 0.0 0.0 0.00 0.01 0.01 53 1018.1
20260903131434 73 229 0.0 0.0 0.00 0.01 0.01 60 1018.5
20260903125306 74 169 0.0 0.0 0.00 0.01 0.01 66 1018.3
20260903124305 74 169 0.0 0.0 0.00 0.00 0.00 66 1018.6
20260903123257 74 210 0.0 6.0 0.00 0.00 0.00 58 1018.5
20260903122243 74 70 0.0 0.0 0.00 0.00 0.00 41 1017.4
20260903121225 74 70 0.0 0.0 0.00 0.00 0.00 39 1017.4
20260903120226 74 70 0.0 0.0 0.00 0.00 0.00 39 1017.3
20260903115230 74 338 0.0 0.0 0.00 0.00 0.00 37 1017.2
20260903114159 74 339 0.0 0.0 0.00 0.00 0.00 36 1017.2
20260903112016 74 335 0.0 0.0 0.00 0.00 0.00 44 1017.1
20260903111012 74 320 0.0 0.0 0.00 0.00 0.00 46 1017.0
20260903110002 74 320 0.0 1.0 0.00 0.00 0.00 49 1017.0
20260903104941 74 195 0.0 0.0 0.00 0.00 0.00 55 1017.1
20260903102821 75 140 0.0 0.0 0.00 0.00 0.00 66 1016.6
20260903101756 76 140 0.0 0.0 0.00 0.00 0.00 69 1016.3
20260903100800 76 140 0.0 0.0 0.00 0.00 0.00 71 1016.5
20260903095729 76 107 0.0 0.0 0.00 0.00 0.00 73 1016.5
20260903094656 77 107 0.0 0.0 0.00 0.00 0.00 73 1016.4
20260903093648 77 107 0.0 0.0 0.00 0.00 0.00 74 1016.2
20260903092704 77 107 0.0 1.0 0.00 0.00 0.00 74 1016.1
20260903091718 77 106 0.0 2.0 0.00 0.00 0.00 74 1016.0
20260903085642 77 37 0.0 0.0 0.00 0.00 0.00 74 1016.0
20260903084703 77 97 0.0 2.0 0.00 0.00 0.00 75 1016.0
20260903083702 78 58 0.0 2.0 0.00 0.00 0.00 75 1016.0
20260903081606 78 54 0.0 2.0 0.00 0.00 0.00 75 1015.9
20260903080613 78 53 0.0 4.0 0.00 0.00 0.00 75 1016.0
20260903075541 78 47 0.0 2.0 0.00 0.00 0.00 75 1015.9
20260903073422 78 56 1.0 4.0 0.00 0.00 0.00 75 1015.9
20260903072422 78 50 0.0 4.0 0.00 0.00 0.00 75 1015.8
20260903070309 78 47 0.0 1.0 0.00 0.00 0.00 75 1015.9
20260903065301 78 48 0.0 3.0 0.00 0.00 0.00 75 1016.0
20260903064315 78 72 0.0 0.0 0.00 0.00 0.00 75 1016.1
20260903063327 78 51 0.0 2.0 0.00 0.00 0.00 75 1016.0
20260903062322 78 48 0.0 0.0 0.00 0.00 0.00 75 1016.1
20260903061304 78 48 0.0 0.0 0.00 0.00 0.00 75 1016.2
20260903054011 79 51 1.0 3.0 0.00 0.00 0.00 75 1016.2
20260903053011 79 41 1.0 5.0 0.00 0.00 0.00 75 1016.1